Regional Weather Roundup
Issued by NWS

Home | Current Version | Previous Version | Text Only | Print | Product List | Glossary On
Versions: 1 2 3 4 5 6 7 8 9 10 11 12 13 14 15 16 17 18 19 20 21 22 23 24 25 26 27 28 29 30 31 32 33 34 35 36 37 38 39 40 41 42 43 44 45 46 47 48 49 50
679
ASUS44 KLIX 211705
RWRLA
LOUISIANA WEATHER ROUNDUP
NATIONAL WEATHER SERVICE NEW ORLEANS LA
1200 PM CDT TUE OCT 21 2014

NOTE: "FAIR" INDICATES FEW OR NO CLOUDS BELOW 12,000 FEET WITH NO
      SIGNIFICANT WEATHER AND/OR OBSTRUCTIONS TO VISIBILITY.
      SKY/WX - SKY CONDITION AND SIGNIFICANT WEATHER.
      TMP - AIR TEMPERATURE.    DP   - DEWPOINT TEMPERATURE.
      RH  - RELATIVE HUMIDITY.  PRES - PRESSURE.
      HX  - HEAT INDEX.         WCI  - WIND CHILL INDEX.

*  THESE STATIONS ARE NOT NWS OR FAA STATIONS AND ARE NOT UNDER
   NWS QUALITY CONTROL.

LAZ040-048-061>063-065-066-069-211800-
SOUTHEAST LOUISIANA

CITY           SKY/WX    TMP DP  RH WIND       PRES   REMARKS
N.O. AUDUBON   NOT AVBL
N.O. INTL ARPT MOSUNNY   75  54  47 NE10      30.06S
N.O. LAKEFRONT SUNNY     75  55  49 NE8       30.07S
N.O. DOWNTOWN* FAIR      77  50  38 CALM      30.06F
SLIDELL        SUNNY     75  53  46 NE6       30.06S
BATON ROUGE    SUNNY     77  53  43 N6        30.07F
BOOTHVILLE     SUNNY     76  60  57 NE12      30.04F
BELLE CHASSE   SUNNY     77  51  40 NE8       30.05F
BOGALUSA*      FAIR      77  51  39 E5        30.08F
NEW ROADS*     FAIR      75  54  48 N5        30.08S
GONZALES*      FAIR      76  55  47 NE6       30.06F
HAMMOND*       SUNNY     79  48  34 E6        30.08S
HOUMA*         SUNNY     77  57  50 NE12      30.05F
PORT FOURCHON* SUNNY     75  63  64 NE15      30.07S

$$

LAZ041-044-053-054-211800-
SOUTHWEST LOUISIANA

CITY           SKY/WX    TMP DP  RH WIND       PRES   REMARKS
LAKE CHARLES   SUNNY     77  54  44 NE10      30.07S
LAFAYETTE      SUNNY     77  54  44 NE6       30.07F
PATTERSON      SUNNY     77  57  50 NE12      30.08S
SALT POINT       N/A     78  56  46 VRB3      30.04F
NEW IBERIA     SUNNY     79  54  41 NE10      30.07F
CHENAULT AIRPK SUNNY     75  55  50 NE12      30.07F

$$

LAZ027-028-211800-
CENTRAL LOUISIANA

CITY           SKY/WX    TMP DP  RH WIND       PRES   REMARKS
FORT POLK      SUNNY     74  56  53 NE9       30.08F
ALEXANDRIA INT MOSUNNY   75  55  49 E6        30.08F
ALEXANDRIA     SUNNY    N/A N/A N/A MISG      30.10F

$$

LAZ001-002-211800-
NORTHWEST LOUISIANA

CITY           SKY/WX    TMP DP  RH WIND       PRES   REMARKS
SHREVEPORT     PTSUNNY   76  59  55 SE5       30.11F
BARKSDALE AFB  SUNNY     77  57  50 VRB2      30.11F
DTN SHREVEPORT MOSUNNY   75  56  51 VRB3      30.11F

$$

LAZ014-016-211800-
NORTHEAST LOUISIANA

CITY           SKY/WX    TMP DP  RH WIND       PRES   REMARKS
MONROE         SUNNY     75  58  55 NE6       30.12F
TALLULAH       SUNNY     75  55  49 NE6       30.10F

$$




USA.gov is the U.S. government's official web portal to all federal, state and local government web resources and services.